TimeEDT,TemperatureF,Dew PointF,Humidity,Sea Level PressureIn,VisibilityMPH,Wind Direction,Wind SpeedMPH,Gust SpeedMPH,PrecipitationIn,Events,Conditions,WindDirDegrees,DateUTC
12:53 AM,55.0,48.0,77,30.01,10.0,West,5.8,-,N/A,,Clear,280,2012-11-03 04:53:00
1:53 AM,54.0,48.0,80,30.01,10.0,NW,4.6,-,N/A,,Clear,310,2012-11-03 05:53:00
2:53 AM,52.0,48.0,86,30.02,7.0,WNW,3.5,-,N/A,,Clear,290,2012-11-03 06:53:00
3:53 AM,46.9,45.0,93,30.02,6.0,Calm,Calm,-,N/A,,Clear,0,2012-11-03 07:53:00
4:53 AM,46.0,45.0,96,30.03,5.0,Calm,Calm,-,N/A,,Clear,0,2012-11-03 08:53:00
5:53 AM,45.0,43.0,93,30.05,6.0,Calm,Calm,-,N/A,,Clear,0,2012-11-03 09:53:00
6:53 AM,43.0,41.0,93,30.07,7.0,Calm,Calm,-,N/A,,Clear,0,2012-11-03 10:53:00
7:53 AM,44.1,42.1,93,30.09,3.0,Calm,Calm,-,N/A,,Clear,0,2012-11-03 11:53:00
8:53 AM,46.9,45.0,93,30.11,4.0,Calm,Calm,-,N/A,,Clear,0,2012-11-03 12:53:00
9:53 AM,57.0,48.9,74,30.12,7.0,Calm,Calm,-,N/A,,Clear,0,2012-11-03 13:53:00
10:53 AM,66.0,48.9,54,30.12,10.0,Calm,Calm,-,N/A,,Clear,0,2012-11-03 14:53:00
11:53 AM,73.0,44.1,35,30.11,10.0,Variable,3.5,-,N/A,,Clear,0,2012-11-03 15:53:00
12:53 PM,78.1,46.0,32,30.09,10.0,Variable,5.8,-,N/A,,Clear,0,2012-11-03 16:53:00
1:53 PM,81.0,50.0,34,30.06,10.0,Variable,6.9,-,N/A,,Clear,0,2012-11-03 17:53:00
2:53 PM,82.9,50.0,32,30.03,10.0,Variable,6.9,-,N/A,,Clear,0,2012-11-03 18:53:00
3:53 PM,84.0,50.0,31,30.01,10.0,NW,4.6,-,N/A,,Clear,310,2012-11-03 19:53:00
4:53 PM,82.9,50.0,32,30.01,10.0,WNW,6.9,-,N/A,,Clear,290,2012-11-03 20:53:00
5:53 PM,82.0,51.1,34,30.00,10.0,West,3.5,-,N/A,,Clear,270,2012-11-03 21:53:00
6:53 PM,73.9,53.1,48,30.01,10.0,Calm,Calm,-,N/A,,Clear,0,2012-11-03 22:53:00
7:53 PM,66.9,55.9,68,30.02,10.0,Calm,Calm,-,N/A,,Clear,0,2012-11-03 23:53:00
8:53 PM,63.0,53.1,70,30.02,10.0,Calm,Calm,-,N/A,,Clear,0,2012-11-04 00:53:00
9:53 PM,61.0,53.1,75,30.02,10.0,Calm,Calm,-,N/A,,Clear,0,2012-11-04 01:53:00
10:53 PM,60.1,53.1,78,30.02,10.0,West,3.5,-,N/A,,Clear,270,2012-11-04 02:53:00
11:53 PM,60.1,54.0,80,30.03,10.0,WSW,4.6,-,N/A,,Clear,250,2012-11-04 03:53:00